When you browse on this site, cookies collect data to enhance your experience and personalize the content and advertising you see.
Visit our Privacy Policy to learn more. By continuing to use the site, you agree to this use of cookies and data.
  • In Hungary
  • List of Countries
  • For 7 days
  • Water Temperature
  • Satellite Maps
  • Weather Map
  • News
  • Weather Widgets
  • user-avatar
    Login

    Hourly Weather Zawada

    Today, 27 May, Monday

    Time Temperature Precipitation Wind Pressure Humidity
    00:00 +14°C° 0 mm 2 mps 734 mmHg 91%
    01:00 +15°C° 0 mm 2 mps 734 mmHg 91%
    02:00 +14°C° 0 mm 2 mps 734 mmHg 91%
    03:00 +14°C° 0 mm 2 mps 734 mmHg 91%
    04:00 +14°C° 0 mm 2 mps 734 mmHg 91%
    05:00 +16°C° 0 mm 2 mps 734 mmHg 87%
    06:00 +17°C° 0 mm 2 mps 734 mmHg 83%
    07:00 +19°C° 0 mm 2 mps 734 mmHg 79%
    08:00 +21°C° 0.1 mm 2 mps 734 mmHg 70%
    09:00 +24°C° 0.1 mm 2 mps 734 mmHg 60%
    10:00 +26°C° 0.1 mm 2 mps 734 mmHg 51%
    11:00 +26°C° 0 mm 1 mps 733 mmHg 52%
    12:00 +26°C° 0 mm 1 mps 733 mmHg 53%
    13:00 +26°C° 0 mm 1 mps 733 mmHg 55%
    14:00 +26°C° 0 mm 1 mps 733 mmHg 54%
    15:00 +26°C° 0 mm 1 mps 732 mmHg 54%
    16:00 +26°C° 0 mm 1 mps 732 mmHg 53%
    17:00 +24°C° 0 mm 1 mps 732 mmHg 60%
    18:00 +23°C° 0 mm 1 mps 731 mmHg 66%
    19:00 +21°C° 0 mm 1 mps 731 mmHg 73%
    20:00 +20°C° 0.1 mm 1 mps 731 mmHg 76%
    21:00 +20°C° 0.1 mm 1 mps 731 mmHg 79%
    22:00 +19°C° 0.1 mm 1 mps 730 mmHg 82%
    23:00 +17°C° 0 mm 2 mps 730 mmHg 84%

    Tomorrow, 28 May, Tuesday

    Time Temperature Precipitation Wind Pressure Humidity
    00:00 +17°C° 0 mm 2 mps 730 mmHg 86%
    01:00 +16°C° 0 mm 2 mps 730 mmHg 88%
    02:00 +16°C° 0 mm 2 mps 729 mmHg 89%
    03:00 +15°C° 0 mm 2 mps 729 mmHg 89%
    04:00 +15°C° 0 mm 2 mps 729 mmHg 90%
    05:00 +16°C° 0 mm 2 mps 729 mmHg 86%
    06:00 +18°C° 0 mm 2 mps 729 mmHg 82%
    07:00 +19°C° 0 mm 2 mps 728 mmHg 77%
    08:00 +21°C° 0 mm 2 mps 728 mmHg 70%
    09:00 +24°C° 0 mm 3 mps 728 mmHg 62%
    10:00 +25°C° 0 mm 3 mps 728 mmHg 54%
    11:00 +24°C° 0.6 mm 3 mps 728 mmHg 62%
    12:00 +22°C° 0.6 mm 3 mps 728 mmHg 70%
    13:00 +21°C° 0.6 mm 3 mps 727 mmHg 77%
    14:00 +21°C° 0.6 mm 3 mps 727 mmHg 76%
    15:00 +21°C° 0.6 mm 2 mps 727 mmHg 75%
    16:00 +23°C° 0.6 mm 2 mps 727 mmHg 75%
    17:00 +21°C° 1.2 mm 1 mps 727 mmHg 78%
    18:00 +20°C° 1.2 mm 1 mps 727 mmHg 81%
    19:00 +19°C° 1.2 mm 1 mps 727 mmHg 84%
    20:00 +18°C° 0.4 mm 1 mps 727 mmHg 86%
    21:00 +16°C° 0.4 mm 1 mps 728 mmHg 88%
    22:00 +15°C° 0.4 mm 1 mps 728 mmHg 90%
    23:00 +15°C° 0 mm 2 mps 728 mmHg 91%

    Day after tomorrow, 29 May, Wednesday

    Time Temperature Precipitation Wind Pressure Humidity
    00:00 +14°C° 0 mm 2 mps 729 mmHg 93%
    01:00 +14°C° 0 mm 2 mps 729 mmHg 94%
    02:00 +13°C° 0 mm 2 mps 729 mmHg 95%
    03:00 +13°C° 0 mm 2 mps 730 mmHg 95%
    04:00 +13°C° 0 mm 2 mps 731 mmHg 96%
    05:00 +12°C° 0.1 mm 3 mps 731 mmHg 95%
    06:00 +12°C° 0.1 mm 3 mps 732 mmHg 95%
    07:00 +11°C° 0.1 mm 3 mps 732 mmHg 94%
    08:00 +11°C° 0.1 mm 3 mps 733 mmHg 94%
    09:00 +11°C° 0.1 mm 3 mps 733 mmHg 93%
    10:00 +11°C° 0.1 mm 3 mps 734 mmHg 93%
    11:00 +11°C° 0.1 mm 3 mps 734 mmHg 92%
    12:00 +11°C° 0.1 mm 3 mps 735 mmHg 91%
    13:00 +10°C° 0.1 mm 3 mps 735 mmHg 91%
    14:00 +12°C° 0 mm 2 mps 735 mmHg 89%
    15:00 +12°C° 0 mm 2 mps 735 mmHg 87%
    16:00 +13°C° 0 mm 2 mps 735 mmHg 85%
    17:00 +12°C° 0 mm 2 mps 736 mmHg 86%
    18:00 +12°C° 0 mm 1 mps 736 mmHg 87%
    19:00 +12°C° 0 mm 1 mps 736 mmHg 88%
    20:00 +12°C° 0 mm 1 mps 736 mmHg 88%
    21:00 +12°C° 0 mm 1 mps 737 mmHg 88%
    22:00 +11°C° 0 mm 1 mps 737 mmHg 88%
    23:00 +11°C° 0.1 mm 1 mps 737 mmHg 89%

    30 May, Thursday

    Time Temperature Precipitation Wind Pressure Humidity
    00:00 +11°C° 0.1 mm 1 mps 737 mmHg 89%
    01:00 +10°C° 0.1 mm 2 mps 737 mmHg 89%
    02:00 +10°C° 0.9 mm 1 mps 737 mmHg 91%
    03:00 +10°C° 0.9 mm 1 mps 737 mmHg 93%
    04:00 +10°C° 0.9 mm 1 mps 737 mmHg 94%
    05:00 +10°C° 0.8 mm 1 mps 738 mmHg 94%
    06:00 +9°C° 0.8 mm 2 mps 738 mmHg 95%
    07:00 +8°C° 0.8 mm 2 mps 738 mmHg 95%
    08:00 +9°C° 0.2 mm 2 mps 738 mmHg 94%
    09:00 +9°C° 0.2 mm 2 mps 738 mmHg 93%
    10:00 +9°C° 0.2 mm 2 mps 739 mmHg 93%
    11:00 +12°C° 0.1 mm 2 mps 739 mmHg 87%
    12:00 +13°C° 0.1 mm 2 mps 739 mmHg 82%
    13:00 +14°C° 0.1 mm 2 mps 739 mmHg 76%
    14:00 +15°C° 0 mm 2 mps 739 mmHg 71%
    15:00 +16°C° 0 mm 2 mps 739 mmHg 65%
    16:00 +17°C° 0 mm 2 mps 739 mmHg 60%
    17:00 +15°C° 0 mm 2 mps 739 mmHg 64%
    18:00 +14°C° 0 mm 1 mps 739 mmHg 68%
    19:00 +13°C° 0 mm 1 mps 739 mmHg 72%
    20:00 +12°C° 0 mm 1 mps 739 mmHg 73%
    21:00 +11°C° 0 mm 1 mps 739 mmHg 73%
    22:00 +10°C° 0 mm 1 mps 739 mmHg 74%
    23:00 +9°C° 0 mm 1 mps 739 mmHg 74%

    31 May, Friday

    Time Temperature Precipitation Wind Pressure Humidity
    00:00 +9°C° 0 mm 1 mps 739 mmHg 74%
    01:00 +9°C° 0 mm 1 mps 739 mmHg 74%
    02:00 +9°C° 0 mm 1 mps 739 mmHg 74%
    03:00 +8°C° 0 mm 1 mps 739 mmHg 74%
    04:00 +8°C° 0 mm 1 mps 739 mmHg 74%
    05:00 +10°C° 0 mm 1 mps 739 mmHg 70%
    06:00 +12°C° 0 mm 1 mps 739 mmHg 66%
    07:00 +14°C° 0 mm 1 mps 739 mmHg 62%
    08:00 +15°C° 0 mm 1 mps 739 mmHg 59%
    09:00 +18°C° 0 mm 1 mps 739 mmHg 56%
    10:00 +19°C° 0 mm 1 mps 739 mmHg 53%
    11:00 +19°C° 0 mm 1 mps 738 mmHg 53%
    12:00 +20°C° 0 mm 1 mps 738 mmHg 53%
    13:00 +20°C° 0 mm 1 mps 738 mmHg 52%
    14:00 +20°C° 0 mm 1 mps 738 mmHg 55%
    15:00 +20°C° 0 mm 1 mps 737 mmHg 58%
    16:00 +20°C° 0 mm 1 mps 737 mmHg 61%
    17:00 +19°C° 0 mm 1 mps 737 mmHg 66%
    18:00 +16°C° 0 mm 1 mps 737 mmHg 72%
    19:00 +15°C° 0 mm 1 mps 737 mmHg 78%
    20:00 +14°C° 0 mm 1 mps 737 mmHg 78%
    21:00 +14°C° 0 mm 1 mps 737 mmHg 78%
    22:00 +13°C° 0 mm 1 mps 737 mmHg 78%
    23:00 +13°C° 0 mm 2 mps 737 mmHg 80%

    1 June, Saturday

    Time Temperature Precipitation Wind Pressure Humidity
    00:00 +13°C° 0 mm 2 mps 737 mmHg 82%
    01:00 +13°C° 0 mm 2 mps 737 mmHg 83%
    02:00 +12°C° 0.3 mm 3 mps 737 mmHg 87%
    03:00 +11°C° 0.3 mm 4 mps 737 mmHg 91%
    04:00 +10°C° 0.3 mm 5 mps 737 mmHg 94%
    05:00 +11°C° 0.2 mm 4 mps 738 mmHg 94%
    06:00 +10°C° 0.2 mm 4 mps 738 mmHg 94%
    07:00 +10°C° 0.2 mm 3 mps 738 mmHg 94%
    08:00 +10°C° 0.1 mm 3 mps 738 mmHg 93%
    09:00 +10°C° 0.1 mm 3 mps 739 mmHg 93%
    10:00 +10°C° 0.1 mm 4 mps 739 mmHg 92%
    11:00 +10°C° 0.1 mm 4 mps 739 mmHg 91%
    12:00 +11°C° 0.1 mm 4 mps 739 mmHg 90%
    13:00 +11°C° 0.1 mm 4 mps 739 mmHg 88%
    14:00 +12°C° 0.1 mm 3 mps 739 mmHg 87%
    15:00 +12°C° 0.1 mm 3 mps 739 mmHg 86%
    16:00 +13°C° 0.1 mm 3 mps 739 mmHg 85%
    17:00 +14°C° 0.1 mm 2 mps 739 mmHg 86%
    18:00 +14°C° 0.1 mm 2 mps 739 mmHg 86%
    19:00 +13°C° 0.1 mm 1 mps 739 mmHg 87%
    20:00 +13°C° 0.1 mm 1 mps 739 mmHg 87%
    21:00 +13°C° 0.1 mm 1 mps 739 mmHg 87%
    22:00 +13°C° 0.1 mm 1 mps 739 mmHg 87%
    23:00 +12°C° 0.1 mm 1 mps 739 mmHg 87%
    Show more